Location: Unspecified
(0.0000°N, 0.0000°E)
Time: 04:20:43
(UTC+00:00)

TSUBAME - Visible Passes

Search period start: 03 December 2023 00:00
Search period end: 13 December 2023 00:00
Orbit: 436 x 473 km, 97.1° (Epoch: 02 December)

Date Brightness Start Highest point End Pass type
(mag) Time Alt. Az. Time Alt. Az. Time Alt. Az.
04 Dec ? 18:26:04 10° SSW 18:29:13 33° W 18:32:20 10° NW visible
06 Dec ? 18:52:59 10° SW 18:54:31 13° WSW 18:56:03 10° WNW visible
07 Dec ? 18:17:31 10° S 18:20:51 46° W 18:24:07 10° NNW visible
09 Dec ? 18:43:33 10° SW 18:45:52 17° WSW 18:48:09 10° WNW visible
12 Dec ? 05:19:12 10° ENE 05:21:01 14° ESE 05:22:51 10° SE visible
12 Dec ? 18:34:01 10° SSW 18:36:47 24° W 18:39:33 10° NW visible
